This is the latest recevied weather packets stored in our database for station/object VA3JLF-1. If no packets are shown the sender has not sent any weather packets the latest 10 day(s).
| Time | Temp. | Humidity | Pressure | Rain* | Wind** | Luminosity | Snow |
|---|---|---|---|---|---|---|---|
| 1778209148 | 6.67° C | 83% | 1007.4 hPa | 0 mm | - | - | - |
| 1778208547 | 7.22° C | 82% | 1007.1 hPa | 0 mm | - | - | - |
| 1778207947 | 7.22° C | 82% | 1007.3 hPa | 0 mm | - | - | - |
| 1778207348 | 7.22° C | 83% | 1007.3 hPa | 0 mm | - | - | - |
| 1778206748 | 6.67° C | 84% | 1007.4 hPa | 0 mm | - | - | - |
| 1778206147 | 6.67° C | 85% | 1007.3 hPa | 0 mm | - | - | - |
| 1778205547 | 6.11° C | 85% | 1007.4 hPa | 0 mm | - | - | - |
| 1778204947 | 6.11° C | 82% | 1007.1 hPa | 0 mm | - | - | - |
| 1778204347 | 6.11° C | 82% | 1007.1 hPa | 0 mm | - | - | - |
| 1778203747 | 6.11° C | 81% | 1007 hPa | 0 mm | - | - | - |
| 1778203147 | 6.11° C | 81% | 1006.8 hPa | 0 mm | - | - | - |
| 1778202547 | 6.11° C | 80% | 1006.7 hPa | 0 mm | - | - | - |
| 1778201947 | 6.11° C | 80% | 1006.8 hPa | 0 mm | - | - | - |
| 1778201348 | 6.67° C | 78% | 1006.5 hPa | 0 mm | - | - | - |
| 1778200748 | 6.67° C | 78% | 1006.6 hPa | 0 mm | - | - | - |
| 1778200147 | 6.67° C | 77% | 1006.6 hPa | 0 mm | - | - | - |
| 1778199548 | 7.22° C | 75% | 1006.5 hPa | 0 mm | - | - | - |
| 1778198947 | 7.78° C | 72% | 1006.5 hPa | 0 mm | - | - | - |
| 1778197748 | 8.33° C | 69% | 1006 hPa | 0 mm | - | - | - |
| 1778197147 | 8.33° C | 68% | 1006 hPa | 0 mm | - | - | - |
| 1778196548 | 8.89° C | 69% | 1006.1 hPa | 0 mm | - | - | - |
| 1778195947 | 8.89° C | 70% | 1006.4 hPa | 0 mm | - | - | - |
| 1778195347 | 8.89° C | 68% | 1006.4 hPa | 0 mm | - | - | - |
| 1778194747 | 8.89° C | 65% | 1006.2 hPa | 0 mm | - | - | - |
| 1778194148 | 9.44° C | 66% | 1006.1 hPa | 0 mm | - | - | - |
* Rain latest hour (hover to see other rain measurements)
** Current wind speed in m/s (hover to see current wind gust speed)